Location: ??????
(38.1303°N, 24.0039°E)
Time: 19:06:24
(UTC+00:00)

USA 307 - Pass Details

Date: 20 June 2021
Orbit: 565 x 576 km, 54.0° (Epoch: 17 July)

Event Time Altitude Azimuth Distance (km) Brightness Sun altitude
Exits shadow 00:37:18 28° 286° (WNW) 1,090 4.1 -21.1°
Maximum altitude 00:38:41 35° 325° (NW) 927 4.1 -21.0°
Drops below altitude 10° 00:42:36 10° 32° (NNE) 1,866 6.7 -20.5°
Sets 00:45:00 0° 42° (NE) 2,764 8.0 -20.3°
